"Pseudo-MPEC" for P11jGCU

Created 2021 Sep 18 18:07:09 UT using Find_Orb

Click here for an explanation of pseudo-MPECs

 
 Astrometry: 
     P11jGCU  C2021 08 29TYAstrometry[agD0?@MvyA(5N30=f:CSr/ewChredacted;cwv5F51
     P11jGCU  C2021 08 29^cYH]PYSqhFOSc;m,Iclickfph=9WZ9TVO8@b;#bk6hereob,^.\F51
     P11jGCU  C2021 08 29kKQ^2forT$(CAA!5.2R;/C,yexplanation8I,P1BA]sZoN^QqZLF51

Station data:
(F51) Pan-STARRS 1, Haleakala  (N20.707235 W156.255910)  US/Hawaii.
   Observers N. Primak, A. Schultz, S. Watters, J. Thiel, T. Goggia. Measurer
   PS1 Science Consortium. 1.8-m Ritchey-Chrétien + CCD.

Orbital elements:  P11jGCU
   Perihelion 2023 Aug 28.945035 +/- 301.213 TT = 22:40:51 (JD 2460185.445035)
Epoch 2021 Aug 29.0 TT = JDT 2459455.5                        AutoNEOCP
M 199.65587808 +/- 123.92005        (J2000 ecliptic)
n   0.21966602 +/- 0.387803         Peri.  229.57877 +/- 70.681962
a   2.72036676 +/- 3.20167          Node   219.13535 +/- 49.352571
e   0.2536277 +/- 0.21734           Incl.   34.95842 +/- 25.225526
P   4.49                   H 17.1   G  0.15   U 12.1  SR
q 2.03040636 +/- 1.57872    Q 3.41032715 +/- 190.614
From 3 observations 2021 Aug. 29 (21.7 min); mean residual 0".07
Residuals in arcseconds: 
210829 F51  .04-  .01+    210829 F51  .13+  .04-    210829 F51  .09-  .03+    

Ephemerides (geocentric):
Date (UTC) HH   RA              Dec         delta   r     elong  mag " sig PA
---- -- -- --  -------------   -----------  ------ ------ -----  --- ---- ---
2021 09 18 18  17 21 33.350   +08 36 31.90  3.3228 3.3712  84.1 23.2 2875  24
2021 09 18 19  17 21 34.849   +08 36 16.66  3.3233 3.3712  84.1 23.2 2885  24
2021 09 18 20  17 21 36.351   +08 36 01.44  3.3238 3.3711  84.1 23.2 2896  24
2021 09 18 21  17 21 37.853   +08 35 46.21  3.3243 3.3711  84.0 23.2 2906  24
2021 09 18 22  17 21 39.358   +08 35 30.99  3.3247 3.3711  84.0 23.2 2917  24
2021 09 18 23  17 21 40.864   +08 35 15.78  3.3252 3.3711  84.0 23.2 2928  24
2021 09 19 00  17 21 42.371   +08 35 00.56  3.3257 3.3710  83.9 23.2 2938  24
2021 09 19 01  17 21 43.880   +08 34 45.35  3.3262 3.3710  83.9 23.2 2949  24
2021 09 19 02  17 21 45.391   +08 34 30.15  3.3267 3.3710  83.9 23.2 2960  24
2021 09 19 03  17 21 46.903   +08 34 14.95  3.3271 3.3709  83.9 23.2 2971  24
2021 09 19 04  17 21 48.417   +08 33 59.75  3.3276 3.3709  83.8 23.2 2982  24
2021 09 19 05  17 21 49.933   +08 33 44.56  3.3281 3.3709  83.8 23.2 2992  24
2021 09 19 06  17 21 51.450   +08 33 29.37  3.3286 3.3709  83.8 23.2 3003  24
2021 09 19 07  17 21 52.968   +08 33 14.18  3.3291 3.3708  83.7 23.2 3014  24
2021 09 19 08  17 21 54.488   +08 32 59.00  3.3295 3.3708  83.7 23.2 3025  24
2021 09 19 09  17 21 56.010   +08 32 43.82  3.3300 3.3708  83.7 23.2 3036  24
2021 09 19 10  17 21 57.533   +08 32 28.64  3.3305 3.3707  83.7 23.2 3047  24
2021 09 19 11  17 21 59.058   +08 32 13.47  3.3310 3.3707  83.6 23.2 3058  24
2021 09 19 12  17 22 00.585   +08 31 58.30  3.3315 3.3707  83.6 23.2 3069  24
2021 09 19 13  17 22 02.113   +08 31 43.14  3.3319 3.3706  83.6 23.3 3080  24
2021 09 19 14  17 22 03.642   +08 31 27.98  3.3324 3.3706  83.5 23.3 3091  24
2021 09 19 15  17 22 05.173   +08 31 12.82  3.3329 3.3706  83.5 23.3 3102  24
2021 09 19 16  17 22 06.706   +08 30 57.67  3.3334 3.3706  83.5 23.3 3113  24
2021 09 19 17  17 22 08.240   +08 30 42.52  3.3339 3.3705  83.5 23.3 3124  24
2021 09 19 18  17 22 09.776   +08 30 27.38  3.3343 3.3705  83.4 23.3 3135  24
2021 09 19 19  17 22 11.314   +08 30 12.23  3.3348 3.3705  83.4 23.3 3147  24
2021 09 19 20  17 22 12.853   +08 29 57.10  3.3353 3.3704  83.4 23.3 3158  24
2021 09 19 21  17 22 14.393   +08 29 41.96  3.3358 3.3704  83.3 23.3 3169  24
2021 09 19 22  17 22 15.935   +08 29 26.84  3.3363 3.3704  83.3 23.3 3180  24
2021 09 19 23  17 22 17.479   +08 29 11.71  3.3367 3.3703  83.3 23.3 3191  24
2021 09 20 00  17 22 19.024   +08 28 56.59  3.3372 3.3703  83.3 23.3 3203  24
2021 09 20 01  17 22 20.571   +08 28 41.47  3.3377 3.3703  83.2 23.3 3214  24
2021 09 20 02  17 22 22.119   +08 28 26.36  3.3382 3.3703  83.2 23.3 3225  24
2021 09 20 03  17 22 23.669   +08 28 11.25  3.3387 3.3702  83.2 23.3 3237  24
2021 09 20 04  17 22 25.221   +08 27 56.14  3.3391 3.3702  83.1 23.3 3248  24
2021 09 20 05  17 22 26.774   +08 27 41.04  3.3396 3.3702  83.1 23.3 3260  24
2021 09 20 06  17 22 28.328   +08 27 25.94  3.3401 3.3701  83.1 23.3 3271  24
2021 09 20 07  17 22 29.885   +08 27 10.85  3.3406 3.3701  83.1 23.3 3283  24
2021 09 20 08  17 22 31.442   +08 26 55.75  3.3411 3.3701  83.0 23.3 3294  24
2021 09 20 09  17 22 33.002   +08 26 40.67  3.3415 3.3700  83.0 23.3 3306  24
2021 09 20 10  17 22 34.562   +08 26 25.59  3.3420 3.3700  83.0 23.3 3317  24
2021 09 20 11  17 22 36.125   +08 26 10.51  3.3425 3.3700  83.0 23.3 3329  24
2021 09 20 12  17 22 37.689   +08 25 55.43  3.3430 3.3700  82.9 23.3 3340  24
2021 09 20 13  17 22 39.254   +08 25 40.36  3.3435 3.3699  82.9 23.3 3352  24
2021 09 20 14  17 22 40.821   +08 25 25.30  3.3439 3.3699  82.9 23.3 3364  24
2021 09 20 15  17 22 42.390   +08 25 10.23  3.3444 3.3699  82.8 23.3 3375  24
2021 09 20 16  17 22 43.960   +08 24 55.17  3.3449 3.3698  82.8 23.3 3387  24
2021 09 20 17  17 22 45.532   +08 24 40.12  3.3454 3.3698  82.8 23.3 3399  24